Вернуться в каталог

SL-14 DEB

АктивенPO
NORAD 45313·DEBRIS·🇷🇺 Russia

Запущен Aug 15, 1991 с Plesetsk Cosmodrome

Loading…

Ближайшие Пролёты (ближайшие 24 часа)

TLE

СвежийSource: Space-Track

Эпоха: Sep 14, 2026, 06:51 UTC

1 45313U 91056BB  26257.28594384  .00001112  00000-0  18333-2 0  9997
2 45313  82.5780   9.3785 0092583 288.3035  70.8048 13.44676061320567

Отслеживайте SL-14 DEB в реальном времени с AllMySat

Download on the App Store